This is the latest recevied weather packets stored in our database for station/object VE6HFD-WX. If no packets are shown the sender has not sent any weather packets the latest 1 day(s).
| Time | Temp. | Humidity | Pressure | Rain* | Wind** | Luminosity | Snow |
|---|---|---|---|---|---|---|---|
| 1836274578 | 16.67° C | 56% | 1009.8 hPa | 0 mm | 0 m/s | - | - |
| 1836274428 | 15.56° C | 58% | 1009.7 hPa | 0 mm | 0 m/s | - | - |
| 1836274248 | 17.22° C | 56% | 1009.8 hPa | 0 mm | 0 m/s | - | - |
| 1836274128 | 16.67° C | 57% | 1009.7 hPa | 0 mm | 0 m/s | - | - |
| 1836273918 | 17.22° C | 55% | 1009.8 hPa | 0 mm | 0 m/s | - | - |
| 1778053327 | -2.22° C | 68% | 1019.3 hPa | 0 mm | 0.45 m/s, 220° | - | - |
| 1778053027 | -2.22° C | 68% | 1019.3 hPa | 0 mm | 0.45 m/s, 220° | - | - |
| 1778052727 | -2.22° C | 68% | 1019.4 hPa | 0 mm | 0.45 m/s, 220° | - | - |
| 1778052397 | -2.22° C | 66% | 1019.4 hPa | 0 mm | 0.89 m/s, 220° | - | - |
| 1778052067 | -1.67° C | 65% | 1019.4 hPa | 0 mm | 0.89 m/s, 220° | - | - |
| 1778051767 | -1.67° C | 64% | 1019.4 hPa | 0 mm | 1.34 m/s, 220° | - | - |
| 1778051437 | -1.11° C | 64% | 1019.5 hPa | 0 mm | 1.34 m/s, 220° | - | - |
| 1778051137 | -1.11° C | 65% | 1019.5 hPa | 0 mm | 1.34 m/s, 220° | - | - |
| 1778050807 | -1.11° C | 66% | 1019.6 hPa | 0 mm | 2.24 m/s, 220° | - | - |
| 1778050507 | -1.11° C | 66% | 1019.6 hPa | 0 mm | 0.89 m/s, 220° | - | - |
| 1778050177 | -1.11° C | 65% | 1019.7 hPa | 0 mm | 0.89 m/s, 220° | - | - |
| 1778049877 | -0.56° C | 63% | 1019.7 hPa | 0 mm | 1.34 m/s, 220° | - | - |
| 1778049547 | -0.56° C | 62% | 1019.8 hPa | 0 mm | 2.24 m/s, 220° | - | - |
| 1778049247 | -1.11° C | 62% | 1019.8 hPa | 0 mm | 2.24 m/s, 233° | - | - |
| 1778048917 | -1.11° C | 62% | 1019.8 hPa | 0 mm | 2.68 m/s, 232° | - | - |
| 1778048617 | -0.56° C | 63% | 1019.8 hPa | 0 mm | 2.24 m/s, 231° | - | - |
| 1778048317 | -0.56° C | 63% | 1019.8 hPa | 0 mm | 2.68 m/s, 216° | - | - |
| 1778047987 | -1.11° C | 64% | 1019.7 hPa | 0 mm | 2.68 m/s, 207° | - | - |
| 1778047687 | -1.11° C | 62% | 1019.7 hPa | 0 mm | 1.34 m/s, 202° | - | - |
| 1778047358 | -1.11° C | 64% | 1019.7 hPa | 0 mm | 1.34 m/s, 202° | - | - |
* Rain latest hour (hover to see other rain measurements)
** Current wind speed in m/s (hover to see current wind gust speed)